Location: Alafon
(8.4500°N, 4.2333°E)
Time: 22:38:39
(UTC+00:00)

deb Explorer IX - Pass Details

Date: 02 August 2021
Orbit: 545 x 1091 km, 38.8° (Epoch: 19 September)

Event Time Altitude Azimuth Distance (km) Brightness Sun altitude
Rises 08:01:03 0° 204° (SSW) 2,732 ? 33.8°
Reaches altitude 10° 08:03:47 10° 186° (S) 1,808 ? 34.5°
Maximum altitude 08:06:49 20° 138° (SE) 1,285 ? 35.2°
Drops below altitude 10° 08:09:52 10° 90° (E) 1,813 ? 35.9°
Sets 08:12:36 0° 73° (ENE) 2,744 ? 36.6°
